Location: Beuerbach
(48.1459°N, 10.9174°E)
Time: 21:06:29
(UTC+00:00)

Cosmos 2219 Rocket - Pass Details

Date: 23 May 2024
Orbit: 827 x 846 km, 71.0° (Epoch: 14 June)

Event Time Altitude Azimuth Distance (km) Brightness Sun altitude
Rises 01:48:54 0° 333° (NNW) 3,399 5.7 -12.9°
Reaches altitude 10° 01:51:22 10° 337° (NNW) 2,464 5.0 -12.6°
Maximum altitude 01:57:00 65° 59° (ENE) 924 2.7 -12.0°
Drops below altitude 10° 02:02:37 10° 142° (SE) 2,460 4.5 -11.5°
Sets 02:05:04 0° 145° (SE) 3,393 5.2 -11.2°
